QPF
0.00 0.00 0.00 0.00 0.00 0.00 0.00 0.00 0.00 0.00 0.00 0.00 0.00 0.00 0.00 0.00 0.00 0.00 0.00 0.00 0.00 0.00 0.00 0.00 0.00 0.00 0.00
0.00 0.00 0.00 0.00 0.00 0.00 0.00 0.00 0.00 0.00 0.00 0.00 0.00 0.00 0.00 0.00 0.00 0.00 0.00 0.00 0.00 0.00 0.00 0.00 0.00 0.00 0.00
0.00 0.00 0.00 0.00 0.00 0.00 0.00 0.00 0.00 0.00 0.00 0.00 0.00 0.00 0.00 0.00 0.00 0.00 0.00 0.00 0.00 0.00 0.00 0.00 0.00 0.00 0.00
0.00 0.00 0.00 0.00 0.00 0.00 0.00 0.00 0.00 0.00 0.00 0.00 0.00 0.00 0.00 0.00 0.00 0.00 0.00 0.00 0.00 0.00 0.00 0.00 0.00 0.00 0.00
0.00 0.00 0.00 0.00 0.00 0.00 0.00 0.00 0.00 0.00 0.00 0.00 0.00 0.00 0.00 0.00 0.00 0.00 0.00 0.00 0.00 0.00 0.00 0.00 0.00 0.00 0.00
0.00 0.00 0.00 0.00 0.00 0.00 0.00 0.00 0.00 0.00 0.00 0.00 0.00 0.00 0.00 0.00 0.00 0.00 0.00 0.00 0.00 0.00 0.00 0.00 0.00 0.00 0.00
0.00 0.00 0.00 0.00 0.00 0.00 0.00 0.00 0.00 0.00 0.00 0.00 0.00 0.00 0.00 0.00 0.00 0.00 0.00 0.00 0.00 0.00 0.00 0.00 0.00 0.00 0.00
0.00 0.00 0.00 0.00 0.00 0.00 0.00 0.00 0.00 0.00 0.00 0.00 0.00 0.00 0.00 0.00 0.00 0.00 0.00 0.00 0.00 0.00 0.00 0.00 0.00 0.00 0.00
0.00 0.00 0.00 0.00 0.00 0.00 0.00 0.00 0.00 0.00 0.00 0.00 0.00 0.00 0.00 0.00 0.00 0.00 0.00 0.00 0.00 0.00 0.00 0.00 0.00 0.00 0.00
0.00 0.00 0.00 0.00 0.00 0.00 0.00 0.00 0.00 0.00 0.00 0.00 0.00 0.00 0.00 0.00 0.00 0.00 0.00 0.00 0.00 0.00 0.00 0.00 0.00 0.00 0.00
0.00 0.00 0.00 0.00 0.00 0.00 0.00 0.00 0.00 0.00 0.00 0.00 0.00 0.00 0.00 0.00 0.00 0.00 0.00 0.00 0.00 0.00 0.00 0.00 0.00 0.00 0.00
0.00 0.00 0.00 0.00 0.00 0.00 0.00 0.00 0.00 0.00 0.00 0.00 0.00 0.00 0.00 0.00 0.00 0.00 0.00 0.00 0.00 0.00 0.00 0.00 0.00 0.00 0.00
0.00 0.00 0.00 0.00 0.00 0.00 0.00 0.00 0.00 0.00 0.00 0.00 0.00 0.00 0.00 0.00 0.00 0.00 0.00 0.00 0.00 0.00 0.00 0.00 0.00 0.00 0.00
0.00 0.00 0.00 0.00 0.00 0.00 0.00 0.00 0.00 0.00 0.00 0.00 0.00 0.00 0.00 0.00 0.00 0.00 0.00 0.00 0.00 0.00 0.00 0.00 0.00 0.00 0.00
0.00 0.00 0.00 0.00 0.00 0.00 0.00 0.00 0.00 0.00 0.00 0.00 0.00 0.00 0.00 0.00 0.00 0.00 0.00 0.00 0.00 0.00 0.00 0.00 0.00 0.00 0.00
0.00 0.00 0.00 0.00 0.00 0.00 0.00 0.00 0.00 0.00 0.00 0.00 0.00 0.00 0.00 0.00 0.00 0.00 0.00 0.00 0.00 0.00 0.00 0.00 0.00 0.00 0.00
0.00 0.00 0.00 0.00 0.00 0.00 0.00 0.00 0.00 0.00 0.00 0.00 0.00 0.00 0.00 0.00 0.00 0.00 0.00 0.00 0.00 0.00 0.00 0.00 0.00 0.00 0.00
MSLP
1027.99 1027.71 1027.20 1027.22 1026.82 1026.35 1025.65 1025.14 1024.58 1024.02 1023.34 1022.66 1022.05 1021.45 1020.91 1020.26 1019.52 1018.75 1017.91 1017.08 1016.40 1015.68 1014.93 1014.34 1013.63 1012.97 1012.35
1027.66 1027.37 1027.00 1026.69 1026.40 1025.86 1025.00 1024.60 1024.02 1023.33 1022.72 1022.01 1021.39 1020.87 1020.21 1019.47 1018.75 1017.92 1017.06 1016.30 1015.64 1014.95 1014.33 1013.71 1013.07 1012.32 1011.49
1027.61 1027.31 1026.69 1026.37 1025.97 1025.29 1024.50 1024.07 1023.46 1022.72 1022.10 1021.63 1020.87 1020.35 1019.63 1018.95 1018.32 1017.32 1016.29 1015.66 1015.09 1014.33 1013.67 1012.95 1012.08 1011.24 1010.55
1027.54 1027.31 1026.92 1026.00 1025.82 1025.11 1023.91 1023.56 1022.81 1022.12 1021.43 1020.97 1020.33 1019.83 1019.00 1018.10 1017.53 1016.57 1015.53 1014.82 1014.08 1013.19 1012.29 1011.55 1010.94 1010.10 1009.21
1027.23 1027.28 1026.72 1026.03 1025.82 1024.91 1024.15 1023.24 1022.23 1021.16 1020.67 1020.59 1019.64 1019.13 1018.22 1017.43 1016.55 1015.56 1014.56 1013.79 1012.83 1011.87 1010.98 1010.19 1009.44 1008.72 1007.93
1026.57 1026.70 1026.20 1025.96 1025.50 1024.90 1024.02 1023.32 1022.00 1020.89 1020.16 1019.32 1018.99 1017.76 1016.98 1016.42 1015.66 1014.58 1013.32 1012.54 1011.47 1010.59 1009.81 1008.99 1008.13 1007.27 1006.44
1025.75 1026.03 1025.83 1025.37 1025.13 1024.48 1023.82 1023.41 1022.67 1021.13 1020.19 1018.14 1017.91 1016.55 1015.88 1015.24 1014.45 1013.41 1012.07 1011.14 1010.11 1009.38 1008.56 1007.65 1006.72 1005.89 1005.07
1025.41 1025.48 1025.38 1025.00 1024.83 1024.04 1023.40 1022.98 1022.26 1021.44 1020.44 1018.06 1016.87 1015.57 1014.45 1013.92 1012.85 1012.03 1010.81 1009.69 1008.79 1008.12 1007.23 1006.26 1005.31 1004.41 1003.48
1024.76 1024.70 1024.57 1024.39 1024.08 1023.65 1023.30 1022.95 1021.71 1020.92 1019.76 1019.31 1017.45 1015.07 1013.24 1011.83 1011.24 1010.78 1009.89 1008.65 1007.72 1006.72 1005.68 1004.75 1003.77 1002.84 1001.81
1024.95 1024.82 1024.69 1024.43 1023.77 1023.66 1023.26 1022.95 1022.36 1020.59 1019.62 1019.11 1017.93 1017.47 1013.02 1010.53 1010.29 1009.49 1008.31 1007.00 1006.22 1005.14 1004.03 1003.29 1002.48 1001.55 1000.49
1024.86 1024.79 1024.56 1024.17 1023.62 1023.24 1022.92 1022.70 1022.23 1021.47 1019.53 1019.69 1017.62 1017.05 1016.77 1013.36 1008.88 1008.42 1007.84 1005.52 1004.50 1003.60 1002.52 1001.74 1001.06 1000.38 999.35
1024.88 1024.69 1024.41 1023.84 1023.23 1022.77 1022.27 1021.96 1021.55 1020.69 1019.42 1019.26 1017.92 1017.01 1015.09 1012.78 1009.85 1007.43 1006.51 1005.16 1004.03 1002.47 1001.32 1000.26 999.52 998.85 998.14
1024.87 1024.71 1024.35 1023.74 1022.98 1022.34 1021.66 1021.18 1020.69 1019.93 1018.89 1018.04 1017.14 1015.92 1015.25 1013.00 1010.36 1007.47 1005.24 1003.74 1002.91 1001.40 1000.24 999.11 998.07 997.22 996.00
1024.99 1024.68 1024.11 1023.44 1022.68 1022.15 1021.51 1020.52 1019.72 1018.70 1017.85 1016.77 1015.71 1014.97 1013.35 1011.82 1009.70 1006.94 1005.47 1003.81 1001.64 1000.07 998.66 997.20 996.07 995.15 994.27
1024.97 1024.57 1023.88 1023.19 1022.49 1021.84 1021.05 1020.04 1019.32 1017.84 1016.04 1015.00 1014.27 1013.51 1012.53 1011.20 1007.62 1005.80 1004.14 1002.38 1000.51 998.43 997.02 995.25 993.76 992.64 992.03
1024.84 1024.35 1023.83 1023.28 1022.47 1021.59 1020.55 1019.93 1018.90 1017.48 1015.43 1013.90 1012.63 1011.10 1010.15 1008.94 1007.79 1003.76 1002.87 1001.13 999.39 997.45 995.95 993.82 991.72 990.22 989.74
1024.65 1024.00 1023.65 1023.14 1022.22 1021.38 1020.39 1019.58 1018.40 1016.84 1015.17 1013.92 1012.90 1011.94 1009.50 1006.91 1004.28 1003.91 1002.19 999.68 997.87 995.95 994.48 992.63 990.42 988.26 987.65
Thickness
5511 5510 5509 5505 5502 5501 5501 5500 5498 5494 5492 5490 5488 5486 5482 5479 5476 5474 5472 5470 5466 5461 5458 5452 5444 5437 5430
5504 5501 5499 5497 5495 5494 5494 5491 5490 5488 5485 5483 5479 5475 5472 5468 5466 5463 5460 5455 5449 5444 5439 5433 5423 5415 5408
5493 5489 5490 5488 5487 5487 5488 5485 5482 5480 5477 5473 5470 5465 5462 5458 5453 5450 5446 5438 5433 5426 5419 5411 5404 5396 5385
5481 5478 5477 5479 5475 5477 5482 5476 5476 5472 5470 5465 5461 5455 5452 5450 5445 5438 5434 5425 5418 5412 5405 5398 5388 5377 5365
5470 5466 5465 5466 5461 5463 5464 5466 5468 5468 5466 5458 5455 5450 5447 5443 5438 5430 5422 5413 5405 5400 5393 5385 5373 5357 5345
5460 5457 5456 5452 5449 5448 5449 5449 5457 5460 5458 5457 5445 5449 5444 5436 5428 5419 5411 5403 5395 5387 5378 5368 5356 5342 5339
5453 5447 5444 5441 5438 5438 5436 5434 5433 5440 5440 5453 5441 5445 5437 5431 5420 5410 5402 5393 5384 5374 5364 5353 5345 5338 5340
5444 5437 5433 5430 5425 5426 5426 5424 5424 5421 5416 5436 5435 5439 5437 5427 5416 5404 5395 5388 5377 5365 5353 5343 5338 5339 5343
5432 5427 5422 5417 5415 5416 5412 5409 5414 5411 5405 5404 5410 5426 5434 5429 5415 5400 5386 5376 5364 5353 5342 5335 5336 5339 5348
5418 5414 5410 5406 5404 5401 5399 5394 5391 5398 5389 5390 5386 5368 5413 5427 5405 5394 5384 5372 5355 5345 5337 5335 5336 5338 5345
5405 5400 5396 5395 5394 5390 5386 5381 5377 5372 5372 5360 5372 5360 5337 5352 5403 5383 5362 5359 5346 5340 5340 5340 5340 5335 5342
5391 5388 5386 5386 5385 5383 5380 5374 5367 5363 5360 5347 5347 5337 5342 5347 5357 5370 5354 5338 5330 5337 5340 5344 5342 5339 5342
5378 5376 5375 5376 5376 5377 5375 5370 5364 5355 5347 5341 5336 5333 5318 5320 5322 5343 5335 5336 5330 5333 5337 5338 5340 5344 5352
5366 5366 5366 5366 5367 5367 5367 5366 5363 5358 5347 5338 5333 5325 5325 5317 5311 5322 5314 5315 5327 5333 5333 5341 5348 5350 5352
5355 5356 5357 5358 5358 5359 5358 5358 5353 5355 5357 5346 5335 5327 5318 5309 5322 5320 5314 5318 5323 5333 5337 5346 5354 5357 5357
5345 5347 5346 5346 5349 5348 5350 5345 5344 5344 5347 5345 5342 5345 5338 5332 5301 5325 5320 5316 5321 5330 5332 5344 5357 5359 5359
5334 5336 5337 5336 5339 5338 5339 5336 5336 5337 5334 5328 5321 5314 5323 5330 5340 5310 5313 5323 5328 5335 5336 5342 5352 5361 5360